Location: Aiyede
(8.4833°N, 4.4500°E)
Time: 09:37:17
(UTC+00:00)

Chunghua 1 - Pass Details

Date: 24 September 2020
Orbit: 459 x 490 km, 34.9° (Epoch: 22 October)

Event Time Altitude Azimuth Distance (km) Brightness Sun altitude
Rises 18:22:00 0° 305° (NW) 2,495 9.2 -12.0°
Reaches altitude 10° 18:24:11 10° 305° (NW) 1,614 8.1 -12.5°
Maximum altitude 18:27:53 85° 217° (SW) 467 4.4 -13.5°
Enters shadow 18:30:23 19° 129° (SE) 1,144 6.0 -14.1°
